Regional Weather Roundup
Issued by NWS

Home | Current Version | Previous Version | Text Only | Print | Product List | Glossary On
Versions: 1 2 3 4 5 6 7 8 9 10 11 12 13 14 15 16 17 18 19 20 21 22 23 24 25 26 27 28 29 30 31 32 33 34 35 36 37 38 39 40 41 42 43 44 45 46 47 48 49 50
000
ASUS43 KOAX 230110
RWRNE

WEATHER ROUNDUP FOR NEBRASKA
NATIONAL WEATHER SERVICE OMAHA NE
800 PM CDT SAT JUL 22 2017

NOTES: SATELLITE DATA IS BEING USED TO AUGMENT CLOUD COVER ABOVE
       12000 FEET.
       "FAIR" INDICATES FEW OR NO CLOUDS BELOW 12,000 FEET WITH NO
       SIGNIFICANT WEATHER AND/OR OBSTRUCTIONS TO VISIBILITY.


NEZ001>004-019>022-054>056-230200-
NEBRASKA PANHANDLE

CITY           SKY/WX    TMP DP  RH WIND       PRES   REMARKS
SCOTTSBLUFF    CLOUDY    86  55  34 S10       30.05S
ALLIANCE       CLOUDY    83  49  30 S12       30.06R
CHADRON        CLOUDY    85  53  33 SE10      30.02S
GORDON         FAIR      84  56  37 CALM      30.05S
KIMBALL        CLOUDY    73  56  53 S8        30.15R
SIDNEY         SUNNY     81  42  25 SE8       30.12S
$$

NEZ057>060-069>072-079>082-230200-
SOUTHWEST NEBRASKA

CITY           SKY/WX    TMP DP  RH WIND       PRES   REMARKS
NORTH PLATTE   SUNNY     85  59  41 N5        30.01S
IMPERIAL       SUNNY     85  47  26 SE7       30.05R
LEXINGTON      CLOUDY    80  66  61 E8        29.98S
MCCOOK         PTSUNNY   83  56  39 E3        30.00R
OGALLALA       SUNNY     84  44  23 SE5       30.05S
$$

NEZ005>010-023>029-035>040-094-230200-
NORTH CENTRAL NEBRASKA

CITY           SKY/WX    TMP DP  RH WIND       PRES   REMARKS
VALENTINE      SUNNY     93  48  21 SE5       29.97S
AINSWORTH      SUNNY     86  61  43 SE5       29.98S
BROKEN BOW     SUNNY     84  62  47 NE6       29.99S
O`NEILL        SUNNY     82  64  54 CALM      29.96F
ORD            MOSUNNY   83  70  64 CALM      29.96S
THEDFORD       SUNNY     88  51  27 CALM      30.02S
$$

NEZ041-046>049-061>064-073>077-083>087-230200-
SOUTH CENTRAL NEBRASKA

CITY           SKY/WX    TMP DP  RH WIND       PRES   REMARKS
GRAND ISLAND   CLOUDY    79  73  82 E6        29.93F
AURORA         PTCLDY    78  73  85 N3        29.93F
HASTINGS       CLOUDY    80  71  74 E8        29.95F
HEBRON         CLOUDY    86  72  62 NE13      29.93R HX  92
HOLDREGE       CLOUDY    78  70  75 E7        29.97F
KEARNEY        LGT RAIN  78  72  81 SE6       29.95F
YORK           MOCLDY    77  73  88 N5        29.94R
$$

NEZ011>018-030>034-042>045-230200-
NORTHEAST NEBRASKA

CITY           SKY/WX    TMP DP  RH WIND       PRES   REMARKS
NORFOLK        PTCLDY    80  70  71 W6        29.93F
ALBION         CLOUDY    82  64  55 CALM      29.94R
BLAIR          PTCLDY    80  72  77 NE5       29.90R
COLUMBUS       PTCLDY    81  68  64 W3        29.93R
FREMONT        CLOUDY    79  71  75 CALM      29.92R
TEKAMAH        CLOUDY    79  74  84 N6        29.89R
WAYNE          PTCLDY    80  78  93 CALM      29.92S
$$

NEZ050>053-065>068-078-088>093-230200-
SOUTHEAST NEBRASKA

CITY           SKY/WX    TMP DP  RH WIND       PRES   REMARKS
LINCOLN        PTCLDY    82  74  76 N9        29.92R
OMAHA EPPLEY   MOCLDY    81  74  79 N8        29.88R
BEATRICE       MOCLDY    85  75  71 NE7       29.90R HX  94
FALLS CITY     CLOUDY    84  78  82 N8        29.84R HX  95
NEBRASKA CITY  CLOUDY    84  80  88 NE6       29.89R HX  97
PLATTSMOUTH    MOCLDY    82  75  81 N5        29.88S
$$

NEZ044-045-051>053-067-230200-
OMAHA AREA

CITY           SKY/WX    TMP DP  RH WIND       PRES   REMARKS
OMAHA EPPLEY   MOCLDY    81  74  79 N8        29.88R
BLAIR          PTCLDY    80  72  77 NE5       29.90R
FREMONT        CLOUDY    79  71  75 CALM      29.92R
MILLARD        CLOUDY    84  73  69 CALM      29.90R HX  91
PLATTSMOUTH    MOCLDY    82  75  81 N5        29.88S
WAHOO          FAIR      79  73  82 N7        29.91R
$$




USA.gov is the U.S. government's official web portal to all federal, state and local government web resources and services.